TimeEST,TemperatureF,Dew PointF,Humidity,Sea Level PressureIn,VisibilityMPH,Wind Direction,Wind SpeedMPH,Gust SpeedMPH,PrecipitationIn,Events,Conditions,WindDirDegrees,DateUTC
12:56 AM,43.0,39.9,89,30.26,10.0,North,8.1,-,N/A,,Overcast,10,2013-01-04 05:56:00
1:27 AM,42.8,39.2,87,30.26,8.0,North,6.9,-,N/A,,Scattered Clouds,10,2013-01-04 06:27:00
1:56 AM,41.0,39.0,93,30.28,6.0,North,6.9,-,N/A,,Partly Cloudy,360,2013-01-04 06:56:00
2:56 AM,39.0,37.9,96,30.30,5.0,North,5.8,-,N/A,,Clear,360,2013-01-04 07:56:00
3:56 AM,37.9,37.9,100,30.30,3.0,Calm,Calm,-,N/A,,Clear,0,2013-01-04 08:56:00
4:56 AM,36.0,36.0,100,30.29,1.0,North,4.6,-,N/A,,Clear,10,2013-01-04 09:56:00
5:04 AM,37.4,35.6,93,30.28,0.5,NNE,4.6,-,N/A,Fog,Fog,20,2013-01-04 10:04:00
5:56 AM,36.0,35.1,97,30.30,2.0,North,5.8,-,N/A,,Partly Cloudy,360,2013-01-04 10:56:00
6:12 AM,35.6,35.6,100,30.29,3.0,North,4.6,-,N/A,,Partly Cloudy,10,2013-01-04 11:12:00
6:56 AM,36.0,35.1,97,30.31,3.0,North,5.8,-,N/A,,Scattered Clouds,10,2013-01-04 11:56:00
7:23 AM,35.6,33.8,93,30.31,1.0,North,6.9,-,N/A,,Mostly Cloudy,360,2013-01-04 12:23:00
7:56 AM,35.1,35.1,100,30.34,1.0,North,4.6,-,N/A,,Mostly Cloudy,350,2013-01-04 12:56:00
8:11 AM,35.6,35.6,100,30.35,2.0,NNE,3.5,-,N/A,,Mostly Cloudy,20,2013-01-04 13:11:00
8:26 AM,37.4,35.6,93,30.35,4.0,Calm,Calm,-,N/A,,Scattered Clouds,0,2013-01-04 13:26:00
8:56 AM,39.0,37.0,93,30.34,7.0,North,4.6,-,N/A,,Scattered Clouds,360,2013-01-04 13:56:00
9:56 AM,45.0,39.0,80,30.35,10.0,NE,5.8,-,N/A,,Scattered Clouds,40,2013-01-04 14:56:00
10:56 AM,48.9,36.0,61,30.35,10.0,ENE,8.1,-,N/A,,Scattered Clouds,60,2013-01-04 15:56:00
11:56 AM,51.1,32.0,48,30.33,10.0,Calm,Calm,-,N/A,,Scattered Clouds,0,2013-01-04 16:56:00
12:56 PM,55.0,30.9,40,30.30,10.0,Variable,3.5,-,N/A,,Scattered Clouds,0,2013-01-04 17:56:00
1:56 PM,55.0,28.0,35,30.27,10.0,NNE,4.6,-,N/A,,Scattered Clouds,20,2013-01-04 18:56:00
2:56 PM,55.9,30.0,37,30.26,10.0,Variable,3.5,-,N/A,,Scattered Clouds,0,2013-01-04 19:56:00
3:56 PM,55.9,32.0,40,30.27,10.0,West,5.8,-,N/A,,Scattered Clouds,280,2013-01-04 20:56:00
4:56 PM,52.0,32.0,47,30.27,10.0,WNW,4.6,-,N/A,,Scattered Clouds,290,2013-01-04 21:56:00
5:56 PM,48.9,34.0,56,30.28,10.0,West,3.5,-,N/A,,Scattered Clouds,270,2013-01-04 22:56:00
6:56 PM,48.9,35.1,59,30.30,10.0,West,3.5,-,N/A,,Partly Cloudy,260,2013-01-04 23:56:00
7:56 PM,45.0,35.1,68,30.32,10.0,Calm,Calm,-,N/A,,Partly Cloudy,0,2013-01-05 00:56:00
8:56 PM,42.1,37.0,82,30.32,10.0,Calm,Calm,-,N/A,,Partly Cloudy,0,2013-01-05 01:56:00
9:56 PM,39.9,37.0,89,30.33,10.0,Calm,Calm,-,N/A,,Partly Cloudy,0,2013-01-05 02:56:00
10:56 PM,41.0,36.0,82,30.33,10.0,Calm,Calm,-,N/A,,Scattered Clouds,0,2013-01-05 03:56:00
11:56 PM,36.0,34.7,95,30.33,10.0,Calm,Calm,-,N/A,,Scattered Clouds,0,2013-01-05 04:56:00